When you browse on this site, cookies collect data to enhance your experience and personalize the content and advertising you see.
Visit our Privacy Policy to learn more. By continuing to use the site, you agree to this use of cookies and data.
  • In Österreich
  • Länderverzeichnis
  • Für 7 Tage
  • Wassertemperatur
  • Wetterkarte
  • News
  • Widgets
  • user-avatar
    Anmelden

    Stündliche Wetter Neuquén

    Heute, 8 Dezember, Sonntag

    Zeit Temperatur Niederschläge Wind Luftdruck Luftfeuchtigkeit
    00:00 +23°C° 0 mm 6 m/S 729 mmHg 18%
    01:00 +21°C° 0 mm 6 m/S 729 mmHg 22%
    02:00 +20°C° 0 mm 5 m/S 729 mmHg 25%
    03:00 +19°C° 0 mm 4 m/S 729 mmHg 28%
    04:00 +18°C° 0 mm 4 m/S 730 mmHg 31%
    05:00 +21°C° 0 mm 3 m/S 730 mmHg 28%
    06:00 +24°C° 0 mm 3 m/S 730 mmHg 24%
    07:00 +26°C° 0 mm 2 m/S 731 mmHg 21%
    08:00 +28°C° 0 mm 2 m/S 731 mmHg 18%
    09:00 +30°C° 0 mm 1 m/S 731 mmHg 16%
    10:00 +32°C° 0 mm 1 m/S 731 mmHg 13%
    11:00 +33°C° 0 mm 1 m/S 730 mmHg 12%
    12:00 +35°C° 0 mm 2 m/S 730 mmHg 10%
    13:00 +36°C° 0 mm 2 m/S 729 mmHg 9%
    14:00 +36°C° 0 mm 2 m/S 729 mmHg 8%
    15:00 +37°C° 0 mm 3 m/S 728 mmHg 8%
    16:00 +37°C° 0 mm 3 m/S 728 mmHg 8%
    17:00 +34°C° 0 mm 2 m/S 728 mmHg 10%
    18:00 +30°C° 0 mm 2 m/S 727 mmHg 12%
    19:00 +27°C° 0 mm 1 m/S 727 mmHg 14%
    20:00 +28°C° 0 mm 3 m/S 728 mmHg 14%
    21:00 +28°C° 0 mm 5 m/S 729 mmHg 15%
    22:00 +28°C° 0 mm 6 m/S 729 mmHg 15%
    23:00 +26°C° 0 mm 6 m/S 729 mmHg 19%

    Morgen, 9 Dezember, Montag

    Zeit Temperatur Niederschläge Wind Luftdruck Luftfeuchtigkeit
    00:00 +25°C° 0 mm 5 m/S 729 mmHg 22%
    01:00 +22°C° 0 mm 5 m/S 729 mmHg 26%
    02:00 +21°C° 0 mm 4 m/S 729 mmHg 28%
    03:00 +20°C° 0 mm 4 m/S 729 mmHg 31%
    04:00 +19°C° 0 mm 4 m/S 729 mmHg 33%
    05:00 +22°C° 0 mm 5 m/S 729 mmHg 27%
    06:00 +26°C° 0 mm 6 m/S 729 mmHg 22%
    07:00 +29°C° 0 mm 6 m/S 729 mmHg 16%
    08:00 +30°C° 0 mm 6 m/S 729 mmHg 13%
    09:00 +33°C° 0 mm 6 m/S 729 mmHg 11%
    10:00 +35°C° 0 mm 6 m/S 729 mmHg 8%
    11:00 +36°C° 0 mm 6 m/S 728 mmHg 7%
    12:00 +39°C° 0 mm 6 m/S 728 mmHg 6%
    13:00 +40°C° 0 mm 6 m/S 727 mmHg 5%
    14:00 +40°C° 0 mm 8 m/S 727 mmHg 5%
    15:00 +40°C° 0 mm 9 m/S 727 mmHg 5%
    16:00 +41°C° 0 mm 11 m/S 726 mmHg 5%
    17:00 +37°C° 0 mm 11 m/S 727 mmHg 7%
    18:00 +34°C° 0 mm 11 m/S 727 mmHg 8%
    19:00 +31°C° 0 mm 11 m/S 728 mmHg 10%
    20:00 +29°C° 0 mm 11 m/S 728 mmHg 13%
    21:00 +27°C° 0 mm 11 m/S 729 mmHg 17%
    22:00 +26°C° 0 mm 11 m/S 729 mmHg 20%
    23:00 +24°C° 0 mm 10 m/S 729 mmHg 21%

    übermorgen, 10 Dezember, Dienstag

    Zeit Temperatur Niederschläge Wind Luftdruck Luftfeuchtigkeit
    00:00 +23°C° 0 mm 8 m/S 729 mmHg 21%
    01:00 +22°C° 0 mm 7 m/S 729 mmHg 22%
    02:00 +21°C° 0 mm 6 m/S 729 mmHg 24%
    03:00 +20°C° 0 mm 6 m/S 729 mmHg 27%
    04:00 +19°C° 0 mm 5 m/S 729 mmHg 30%
    05:00 +21°C° 0 mm 6 m/S 730 mmHg 27%
    06:00 +23°C° 0 mm 6 m/S 730 mmHg 24%
    07:00 +26°C° 0 mm 7 m/S 730 mmHg 21%
    08:00 +28°C° 0 mm 8 m/S 730 mmHg 17%
    09:00 +29°C° 0 mm 8 m/S 730 mmHg 14%
    10:00 +32°C° 0 mm 9 m/S 730 mmHg 10%
    11:00 +33°C° 0 mm 8 m/S 729 mmHg 9%
    12:00 +34°C° 0 mm 8 m/S 729 mmHg 8%
    13:00 +34°C° 0 mm 7 m/S 728 mmHg 7%
    14:00 +35°C° 0 mm 7 m/S 728 mmHg 7%
    15:00 +35°C° 0 mm 8 m/S 727 mmHg 6%
    16:00 +37°C° 0 mm 8 m/S 727 mmHg 6%
    17:00 +34°C° 0 mm 9 m/S 727 mmHg 8%
    18:00 +31°C° 0 mm 10 m/S 727 mmHg 9%
    19:00 +28°C° 0 mm 11 m/S 727 mmHg 11%
    20:00 +27°C° 0 mm 11 m/S 728 mmHg 13%
    21:00 +26°C° 0 mm 12 m/S 728 mmHg 15%
    22:00 +23°C° 0 mm 12 m/S 728 mmHg 17%
    23:00 +23°C° 0 mm 11 m/S 728 mmHg 20%

    11 Dezember, Mittwoch

    Zeit Temperatur Niederschläge Wind Luftdruck Luftfeuchtigkeit
    00:00 +22°C° 0 mm 11 m/S 728 mmHg 23%
    01:00 +21°C° 0 mm 10 m/S 728 mmHg 26%
    02:00 +19°C° 0 mm 9 m/S 728 mmHg 27%
    03:00 +18°C° 0 mm 9 m/S 728 mmHg 28%
    04:00 +16°C° 0 mm 8 m/S 728 mmHg 29%
    05:00 +18°C° 0 mm 9 m/S 728 mmHg 27%
    06:00 +19°C° 0 mm 10 m/S 728 mmHg 26%
    07:00 +22°C° 0 mm 11 m/S 728 mmHg 24%
    08:00 +24°C° 0 mm 11 m/S 728 mmHg 21%
    09:00 +27°C° 0 mm 11 m/S 728 mmHg 18%
    10:00 +29°C° 0 mm 11 m/S 727 mmHg 15%
    11:00 +29°C° 0 mm 13 m/S 727 mmHg 14%
    12:00 +31°C° 0 mm 14 m/S 727 mmHg 12%
    13:00 +31°C° 0 mm 16 m/S 726 mmHg 11%
    14:00 +29°C° 0 mm 16 m/S 726 mmHg 11%
    15:00 +28°C° 0 mm 16 m/S 727 mmHg 11%
    16:00 +27°C° 0 mm 16 m/S 727 mmHg 11%
    17:00 +24°C° 0 mm 15 m/S 728 mmHg 15%
    18:00 +22°C° 0 mm 14 m/S 729 mmHg 19%
    19:00 +19°C° 0 mm 13 m/S 730 mmHg 22%
    20:00 +18°C° 0 mm 12 m/S 730 mmHg 24%
    21:00 +16°C° 0 mm 11 m/S 731 mmHg 26%
    22:00 +14°C° 0 mm 10 m/S 732 mmHg 29%
    23:00 +13°C° 0 mm 10 m/S 733 mmHg 31%

    12 Dezember, Donnerstag

    Zeit Temperatur Niederschläge Wind Luftdruck Luftfeuchtigkeit
    00:00 +12°C° 0 mm 9 m/S 733 mmHg 34%
    01:00 +11°C° 0 mm 9 m/S 734 mmHg 36%
    02:00 +10°C° 0 mm 8 m/S 734 mmHg 38%
    03:00 +10°C° 0 mm 7 m/S 734 mmHg 40%
    04:00 +9°C° 0 mm 7 m/S 735 mmHg 43%
    05:00 +10°C° 0 mm 6 m/S 735 mmHg 38%
    06:00 +13°C° 0 mm 6 m/S 735 mmHg 34%
    07:00 +14°C° 0 mm 6 m/S 735 mmHg 30%
    08:00 +16°C° 0 mm 6 m/S 735 mmHg 26%
    09:00 +17°C° 0 mm 6 m/S 735 mmHg 21%
    10:00 +20°C° 0 mm 6 m/S 735 mmHg 17%
    11:00 +21°C° 0 mm 6 m/S 734 mmHg 15%
    12:00 +22°C° 0 mm 6 m/S 733 mmHg 12%
    13:00 +24°C° 0 mm 6 m/S 733 mmHg 10%
    14:00 +24°C° 0 mm 6 m/S 732 mmHg 10%
    15:00 +26°C° 0 mm 6 m/S 731 mmHg 9%
    16:00 +26°C° 0 mm 6 m/S 731 mmHg 9%
    17:00 +23°C° 0 mm 5 m/S 731 mmHg 10%
    18:00 +21°C° 0 mm 4 m/S 731 mmHg 11%
    19:00 +20°C° 0 mm 2 m/S 731 mmHg 12%
    20:00 +19°C° 0 mm 2 m/S 731 mmHg 12%
    21:00 +19°C° 0 mm 3 m/S 732 mmHg 13%
    22:00 +18°C° 0 mm 3 m/S 732 mmHg 13%
    23:00 +17°C° 0 mm 4 m/S 732 mmHg 18%

    13 Dezember, Freitag

    Zeit Temperatur Niederschläge Wind Luftdruck Luftfeuchtigkeit
    00:00 +17°C° 0 mm 4 m/S 732 mmHg 22%
    01:00 +15°C° 0 mm 4 m/S 732 mmHg 26%
    02:00 +14°C° 0 mm 4 m/S 732 mmHg 27%
    03:00 +13°C° 0 mm 4 m/S 732 mmHg 28%
    04:00 +13°C° 0 mm 4 m/S 732 mmHg 28%
    05:00 +15°C° 0 mm 4 m/S 732 mmHg 26%
    06:00 +18°C° 0 mm 4 m/S 732 mmHg 23%
    07:00 +20°C° 0 mm 3 m/S 732 mmHg 20%
    08:00 +22°C° 0 mm 3 m/S 732 mmHg 18%
    09:00 +24°C° 0 mm 2 m/S 732 mmHg 16%
    10:00 +26°C° 0 mm 1 m/S 732 mmHg 14%
    11:00 +27°C° 0 mm 2 m/S 731 mmHg 13%
    12:00 +28°C° 0 mm 3 m/S 731 mmHg 12%
    13:00 +29°C° 0 mm 4 m/S 730 mmHg 11%
    14:00 +29°C° 0 mm 4 m/S 730 mmHg 11%
    15:00 +29°C° 0 mm 4 m/S 729 mmHg 11%
    16:00 +30°C° 0 mm 5 m/S 728 mmHg 11%
    17:00 +28°C° 0 mm 4 m/S 729 mmHg 13%
    18:00 +26°C° 0 mm 3 m/S 729 mmHg 15%
    19:00 +24°C° 0 mm 2 m/S 729 mmHg 17%
    20:00 +24°C° 0 mm 2 m/S 729 mmHg 17%
    21:00 +24°C° 0 mm 3 m/S 730 mmHg 17%
    22:00 +23°C° 0 mm 4 m/S 730 mmHg 17%
    23:00 +23°C° 0 mm 5 m/S 730 mmHg 20%
    Mehr zeigen